Theta_e
300 304 305 300 297 300 291 287 289 294 295 303 312 317 321 324 327 327 329 329 333 335 336 336 337 337 339 340 342 343 343 344
298 303 305 304 303 294 290 286 283 288 292 299 301 305 318 322 324 326 328 330 333 335 335 335 337 339 339 341 341 344 344 345
296 295 297 297 300 298 297 292 291 284 291 298 303 305 312 318 324 327 329 331 331 333 336 336 337 340 339 340 340 342 345 345
289 299 300 296 298 295 296 290 287 293 296 301 303 304 312 320 324 328 330 333 333 332 335 336 335 339 340 340 340 341 345 345
287 291 296 293 296 301 295 291 290 293 295 301 301 303 305 308 315 325 330 332 333 333 334 335 336 337 340 342 342 342 343 345
282 286 290 288 291 293 293 294 290 293 297 298 301 301 303 305 309 320 328 331 333 333 333 335 336 337 339 342 344 343 344 344
287 289 290 289 289 291 292 295 294 296 293 296 300 301 304 310 310 311 317 328 331 332 333 334 335 336 339 341 344 344 343 344
285 289 289 288 291 294 295 298 295 294 295 299 308 315 318 316 310 309 318 328 331 332 334 334 335 336 338 341 343 345 344 344
280 288 292 289 295 297 298 298 298 293 297 309 313 316 316 318 317 313 322 328 330 332 334 335 336 337 337 340 343 345 345 346
280 284 287 294 300 300 297 297 299 302 307 315 315 315 316 319 320 323 324 325 330 333 335 337 338 338 338 341 342 344 346 347
280 285 294 296 297 295 294 293 299 299 302 311 316 317 314 316 321 323 326 329 328 330 333 335 338 338 338 338 340 342 344 347
285 283 288 293 298 301 301 289 298 299 299 303 311 304 306 312 319 321 327 329 330 334 330 333 334 339 337 337 338 338 342 346
285 284 292 297 298 302 288 289 298 299 299 299 300 301 305 311 310 316 320 326 333 340 336 334 328 339 338 338 338 339 341 342
287 288 287 299 299 291 293 297 297 297 297 299 301 305 307 308 307 309 310 321 326 336 341 340 329 333 331 335 334 342 343 342
286 288 297 297 300 298 299 297 297 297 298 298 302 302 305 304 305 307 309 312 322 326 335 341 346 346 345 343 345 341 341 343
287 291 292 296 298 300 299 299 301 300 300 300 299 303 304 303 304 305 307 311 317 323 324 330 339 342 342 345 346 347 347 344
289 292 294 297 299 299 300 301 303 304 302 301 301 302 303 303 303 305 306 312 315 320 322 323 332 338 339 341 342 341 343 344
287 295 295 295 299 301 299 300 302 303 302 303 303 303 305 303 303 305 305 312 318 320 320 321 323 333 337 338 339 337 336 338
296 301 302 301 301 302 300 302 305 304 304 303 304 303 304 303 304 307 307 311 315 317 318 318 319 323 334 337 337 335 333 335
Wind_Speed
20 14 17 12 22 10 5 3 3 4 4 5 8 12 19 21 19 21 22 19 25 22 22 22 22 24 24 23 22 21 21 17
14 10 15 16 8 9 5 9 6 4 6 9 13 11 18 21 18 19 23 22 20 21 22 20 23 23 23 23 25 22 20 17
9 6 24 6 14 7 6 5 11 3 9 7 12 17 16 20 21 21 24 26 22 18 20 21 17 20 22 21 22 19 18 18
12 15 15 9 8 8 11 15 2 7 15 2 10 12 17 20 19 21 25 26 24 21 20 20 19 19 20 20 19 20 20 18
9 2 5 4 3 14 4 4 13 17 12 5 6 6 12 15 15 15 19 22 24 20 19 20 20 18 20 19 20 20 18 17
8 9 14 12 21 19 11 13 6 13 10 8 9 8 8 10 13 15 19 23 22 20 20 20 20 18 19 19 19 18 17 17
11 18 20 21 23 24 14 14 16 13 10 10 12 8 7 9 9 20 25 26 23 22 20 20 19 18 18 18 18 18 18 17
9 23 19 20 19 19 21 21 6 4 11 6 5 4 13 12 13 15 20 25 25 24 22 21 21 21 18 18 18 19 18 18
8 8 13 5 7 13 13 17 4 7 2 8 7 14 13 16 12 9 18 21 23 24 23 22 21 21 20 20 17 18 17 16
9 7 7 10 8 5 23 22 20 10 5 6 13 10 18 17 15 13 9 5 20 19 19 20 17 17 13 14 16 16 16 15
4 7 8 1 6 9 5 16 23 20 18 5 3 13 17 21 19 14 10 9 6 3 8 9 14 13 14 13 14 14 16 17
3 5 6 4 18 17 11 11 20 20 20 18 10 11 6 17 17 17 16 13 11 7 6 10 7 14 15 14 14 15 17 17
10 6 2 10 22 17 8 2 13 15 17 15 13 3 5 10 15 15 13 15 13 11 9 6 4 12 15 14 17 13 8 10
3 5 5 17 7 8 4 3 6 10 14 15 10 7 8 11 13 16 17 18 17 13 11 8 7 10 8 7 2 6 9 10
3 2 3 7 5 8 9 7 9 10 10 13 13 9 8 8 10 12 13 13 13 12 12 12 9 9 12 4 5 6 6 4
9 3 12 12 4 7 11 11 12 8 10 9 10 11 8 8 8 9 10 12 11 12 14 13 10 8 7 7 6 7 7 5
6 7 15 5 6 13 12 12 14 11 8 10 9 9 6 7 8 7 7 8 8 9 8 10 8 7 6 6 6 6 5 5
4 13 7 16 13 10 11 12 13 13 16 10 7 8 6 7 5 5 7 7 9 9 10 10 10 8 6 6 6 6 6 4
6 13 8 12 14 14 9 11 10 10 11 15 10 6 6 4 4 4 4 6 7 7 6 5 6 7 7 7 6 4 3 4
Wind_Direction
299 238 186 195 208 190 91 320 155 218 259 234 203 221 214 216 210 207 203 197 215 204 197 194 190 188 187 187 194 193 193 195
302 301 228 205 162 187 216 191 219 277 219 220 165 204 219 226 210 207 208 205 206 203 199 193 193 189 188 189 190 191 191 193
336 236 217 201 204 206 162 183 217 241 246 212 180 185 200 221 219 207 204 205 203 202 201 199 189 189 191 191 191 190 190 191
254 281 303 272 208 164 196 213 240 243 243 270 232 169 192 205 212 210 206 203 203 200 195 194 191 187 191 190 191 191 192 190
300 256 16 337 263 215 168 109 210 225 239 250 269 272 187 201 220 211 211 208 207 194 189 193 192 184 188 189 193 193 187 190
256 320 312 288 311 309 301 214 186 229 225 265 267 241 263 203 217 211 207 210 205 191 187 188 189 185 186 191 192 190 186 189
259 273 275 274 277 286 286 260 205 228 194 220 233 251 272 281 227 222 215 202 197 190 188 185 184 185 186 190 187 187 188 191
287 274 249 249 265 264 254 259 209 192 235 194 59 55 10 329 276 238 203 191 189 189 187 183 182 188 183 186 187 185 189 196
267 306 307 208 320 304 79 33 337 209 290 305 51 56 25 352 320 248 197 185 188 186 186 186 187 184 185 186 178 186 189 196
278 299 186 150 22 341 82 45 23 3 288 149 102 84 46 10 2 14 12 191 191 186 186 191 183 187 168 172 182 182 188 193
266 317 101 354 356 336 17 44 15 10 20 348 98 49 28 0 3 9 22 36 27 118 153 161 167 162 167 172 176 178 190 193
314 273 169 274 310 310 246 45 357 2 6 11 36 66 340 341 349 359 16 25 27 27 96 124 147 155 162 170 172 191 195 193
238 260 156 313 317 308 72 220 334 351 3 1 36 20 289 336 2 5 11 22 23 41 62 63 113 166 174 176 194 200 178 176
262 221 149 333 355 67 173 88 342 347 360 356 347 351 7 7 5 6 6 19 25 37 40 38 49 114 108 125 134 162 164 176
257 299 357 4 75 66 52 28 4 341 341 345 350 347 354 3 1 355 1 11 21 31 37 34 40 72 82 48 76 93 132 169
321 7 311 322 108 43 1 347 339 329 322 332 336 347 344 355 6 5 0 3 11 26 33 29 21 35 63 59 58 68 69 75
262 271 321 94 341 338 339 334 331 327 328 322 331 331 336 342 358 0 356 357 19 27 27 17 5 28 35 40 59 58 52 33
335 319 289 278 300 321 323 320 320 323 321 317 311 303 324 342 343 348 360 347 20 12 16 7 1 3 11 24 36 37 28 17
304 318 305 268 295 300 288 288 306 308 294 297 302 281 288 300 314 323 6 10 18 355 349 0 354 354 353 8 18 15 358 328